| time (UTC) | temp C | wind direction | speed KPH | gust KPH | rain 1hr cm | rain 24hr cm | rain mn cm | humidity % | barometer mb |
| 20260506151019 | 15 | 150 | 4.8 | 8.0 | 0.00 | 0.00 | 0.00 | 85 | 1009.6 |
| 20260506150024 | 15 | 160 | 3.2 | 6.4 | 0.00 | 0.00 | 0.00 | 85 | 1009.6 |
| 20260506145045 | 15 | 163 | 4.8 | 4.8 | 0.00 | 0.00 | 0.00 | 85 | 1009.5 |
| 20260506144025 | 15 | 154 | 4.8 | 6.4 | 0.00 | 0.00 | 0.00 | 84 | 1009.7 |
| 20260506143026 | 16 | 148 | 3.2 | 6.4 | 0.00 | 0.00 | 0.00 | 83 | 1009.8 |
| 20260506142025 | 16 | 157 | 4.8 | 8.0 | 0.00 | 0.00 | 0.00 | 81 | 1010.0 |
| 20260506141026 | 16 | 195 | 1.6 | 3.2 | 0.00 | 0.00 | 0.00 | 81 | 1009.8 |
| 20260506140020 | 16 | 169 | 4.8 | 8.0 | 0.00 | 0.00 | 0.00 | 81 | 1009.6 |
| 20260506135026 | 16 | 176 | 3.2 | 8.0 | 0.00 | 0.00 | 0.00 | 82 | 1010.0 |
| 20260506134101 | 15 | 158 | 3.2 | 4.8 | 0.00 | 0.00 | 0.00 | 84 | 1010.0 |
| 20260506133026 | 15 | 146 | 3.2 | 6.4 | 0.00 | 0.00 | 0.00 | 84 | 1009.8 |
| 20260506132020 | 15 | 169 | 4.8 | 8.0 | 0.00 | 0.00 | 0.00 | 86 | 1009.6 |
| 20260506131020 | 15 | 142 | 4.8 | 8.0 | 0.00 | 0.00 | 0.00 | 86 | 1009.6 |
| 20260506130026 | 15 | 151 | 4.8 | 6.4 | 0.00 | 0.00 | 0.00 | 84 | 1009.7 |
| 20260506125026 | 16 | 178 | 1.6 | 3.2 | 0.00 | 0.00 | 0.00 | 83 | 1009.7 |
| 20260506124047 | 16 | 174 | 3.2 | 8.0 | 0.00 | 0.00 | 0.00 | 82 | 1009.8 |
| 20260506123027 | 16 | 164 | 3.2 | 8.0 | 0.00 | 0.00 | 0.00 | 83 | 1010.0 |
| 20260506122027 | 15 | 197 | 1.6 | 3.2 | 0.00 | 0.00 | 0.00 | 85 | 1010.2 |
| 20260506121027 | 15 | 189 | 3.2 | 6.4 | 0.00 | 0.00 | 0.00 | 86 | 1010.2 |
| 20260506120027 | 15 | 184 | 1.6 | 4.8 | 0.00 | 0.00 | 0.00 | 86 | 1010.2 |
| 20260506115028 | 15 | 186 | 3.2 | 6.4 | 0.00 | 0.00 | 0.00 | 87 | 1010.1 |
| 20260506114028 | 15 | 180 | 1.6 | 4.8 | 0.00 | 0.00 | 0.00 | 87 | 1010.0 |
| 20260506113048 | 14 | 167 | 1.6 | 3.2 | 0.00 | 0.00 | 0.00 | 88 | 1010.1 |
| 20260506112029 | 14 | 168 | 1.6 | 4.8 | 0.00 | 0.00 | 0.00 | 90 | 1010.2 |
| 20260506111028 | 13 | 230 | 1.6 | 1.6 | 0.00 | 0.00 | 0.00 | 91 | 1010.1 |
| 20260506110048 | 13 | 185 | 1.6 | 4.8 | 0.00 | 0.00 | 0.00 | 91 | 1010.1 |
| 20260506105048 | 13 | 183 | 1.6 | 3.2 | 0.00 | 0.00 | 0.00 | 92 | 1010.2 |
| 20260506104029 | 13 | 181 | 1.6 | 3.2 | 0.00 | 0.00 | 0.00 | 93 | 1010.0 |
| 20260506103029 | 12 | 181 | 3.2 | 4.8 | 0.00 | 0.00 | 0.00 | 94 | 1010.0 |
| 20260506102049 | 12 | 170 | 1.6 | 3.2 | 0.00 | 0.00 | 0.00 | 94 | 1010.1 |
| 20260506101029 | 12 | 183 | 1.6 | 3.2 | 0.00 | 0.00 | 0.00 | 95 | 1010.1 |
| 20260506100029 | 12 | 178 | 1.6 | 3.2 | 0.00 | 0.00 | 0.00 | 95 | 1010.0 |
| 20260506095044 | 11 | 176 | 1.6 | 3.2 | 0.00 | 0.00 | 0.00 | 95 | 1010.0 |
| 20260506094030 | 11 | 177 | 1.6 | 1.6 | 0.00 | 0.00 | 0.00 | 95 | 1010.1 |
| 20260506093029 | 11 | 192 | 0.0 | 1.6 | 0.00 | 0.00 | 0.00 | 95 | 1010.0 |
| 20260506092029 | 11 | 329 | 0.0 | 0.0 | 0.00 | 0.00 | 0.00 | 95 | 1010.1 |
| 20260506091031 | 11 | 143 | 0.0 | 1.6 | 0.00 | 0.00 | 0.00 | 95 | 1010.2 |
| 20260506090030 | 11 | 165 | 1.6 | 3.2 | 0.00 | 0.00 | 0.00 | 95 | 1010.1 |
| 20260506085031 | 11 | 192 | 1.6 | 1.6 | 0.00 | 0.00 | 0.00 | 95 | 1010.2 |
| 20260506084016 | 11 | 138 | 0.0 | 1.6 | 0.00 | 0.00 | 0.00 | 94 | 1010.3 |
| 20260506083016 | 11 | 0.0 | 0.0 | 0.00 | 0.00 | 0.00 | 94 | 1010.4 | |
| 20260506082016 | 11 | 170 | 0.0 | 1.6 | 0.00 | 0.00 | 0.00 | 93 | 1010.5 |
| 20260506081016 | 12 | 185 | 1.6 | 3.2 | 0.00 | 0.00 | 0.00 | 93 | 1010.4 |
| 20260506073017 | 12 | 174 | 1.6 | 4.8 | 0.00 | 0.00 | 0.00 | 91 | 1010.6 |
| 20260506072017 | 12 | 183 | 1.6 | 3.2 | 0.00 | 0.00 | 0.00 | 91 | 1010.6 |
| 20260506071047 | 12 | 179 | 1.6 | 3.2 | 0.00 | 0.00 | 0.00 | 91 | 1010.6 |
| 20260506062019 | 12 | 172 | 1.6 | 3.2 | 0.00 | 0.00 | 0.00 | 89 | 1010.5 |
| 20260506061018 | 13 | 171 | 3.2 | 6.4 | 0.00 | 0.00 | 0.00 | 88 | 1010.5 |
| 20260506051017 | 14 | 196 | 1.6 | 3.2 | 0.00 | 0.00 | 0.00 | 84 | 1010.8 |
| 20260506045057 | 15 | 208 | 1.6 | 3.2 | 0.00 | 0.00 | 0.00 | 83 | 1010.9 |
| 20260506044017 | 15 | 219 | 1.6 | 6.4 | 0.00 | 0.00 | 0.00 | 83 | 1010.9 |
| 20260506043037 | 15 | 271 | 1.6 | 3.2 | 0.00 | 0.00 | 0.00 | 82 | 1010.9 |
| 20260506042038 | 15 | 207 | 1.6 | 4.8 | 0.00 | 0.00 | 0.00 | 82 | 1010.9 |
| 20260506041018 | 15 | 226 | 1.6 | 3.2 | 0.00 | 0.00 | 0.00 | 82 | 1010.9 |
| 20260506040018 | 15 | 189 | 1.6 | 4.8 | 0.00 | 0.00 | 0.00 | 81 | 1010.9 |
| 20260506035018 | 15 | 208 | 1.6 | 3.2 | 0.00 | 0.00 | 0.00 | 81 | 1010.8 |
| 20260506034019 | 15 | 181 | 0.0 | 1.6 | 0.00 | 0.00 | 0.00 | 80 | 1010.8 |
| 20260506033018 | 15 | 215 | 1.6 | 3.2 | 0.00 | 0.00 | 0.00 | 79 | 1010.8 |
| 20260506032021 | 15 | 250 | 0.0 | 1.6 | 0.00 | 0.00 | 0.00 | 79 | 1010.7 |
| 20260506031016 | 15 | 277 | 0.0 | 3.2 | 0.00 | 0.00 | 0.00 | 78 | 1010.8 |
| 20260506030015 | 15 | 224 | 1.6 | 4.8 | 0.00 | 0.00 | 0.00 | 78 | 1010.9 |
| 20260506025017 | 15 | 229 | 0.0 | 3.2 | 0.00 | 0.00 | 0.00 | 77 | 1010.9 |
| 20260506024016 | 16 | 282 | 1.6 | 4.8 | 0.00 | 0.00 | 0.00 | 76 | 1010.9 |
| 20260506023037 | 16 | 214 | 1.6 | 6.4 | 0.00 | 0.00 | 0.00 | 76 | 1010.9 |
| 20260506022017 | 16 | 231 | 3.2 | 6.4 | 0.00 | 0.00 | 0.00 | 75 | 1010.8 |
| 20260506021037 | 16 | 235 | 3.2 | 8.0 | 0.00 | 0.00 | 0.00 | 74 | 1010.6 |
| 20260506020017 | 16 | 232 | 3.2 | 9.7 | 0.00 | 0.00 | 0.00 | 73 | 1010.5 |
| 20260506015017 | 16 | 206 | 4.8 | 14.5 | 0.00 | 0.00 | 0.00 | 74 | 1010.5 |
| 20260506014017 | 16 | 233 | 3.2 | 9.7 | 0.00 | 0.00 | 0.00 | 73 | 1010.4 |
| 20260506013018 | 16 | 177 | 1.6 | 6.4 | 0.00 | 0.00 | 0.00 | 72 | 1010.2 |
| 20260506012018 | 16 | 227 | 3.2 | 9.7 | 0.00 | 0.00 | 0.00 | 72 | 1010.1 |
| 20260506011017 | 17 | 295 | 1.6 | 6.4 | 0.00 | 0.00 | 0.00 | 72 | 1009.9 |
| 20260506010018 | 16 | 264 | 3.2 | 12.9 | 0.00 | 0.00 | 0.00 | 72 | 1009.8 |
| 20260506005018 | 16 | 251 | 4.8 | 11.3 | 0.00 | 0.00 | 0.00 | 72 | 1009.6 |
| 20260506004015 | 17 | 252 | 3.2 | 6.4 | 0.00 | 0.00 | 0.00 | 71 | 1009.4 |
| 20260506003016 | 17 | 252 | 3.2 | 11.3 | 0.00 | 0.00 | 0.00 | 71 | 1009.4 |
| 20260506002016 | 17 | 261 | 3.2 | 11.3 | 0.00 | 0.00 | 0.00 | 71 | 1009.3 |
| 20260506001018 | 17 | 223 | 4.8 | 11.3 | 0.00 | 0.00 | 0.00 | 70 | 1009.2 |
| 20260506000016 | 16 | 285 | 3.2 | 8.0 | 0.00 | 0.00 | 0.00 | 70 | 1009.1 |
| 20260505235016 | 17 | 315 | 3.2 | 9.7 | 0.00 | 0.00 | 0.00 | 70 | 1008.8 |
| 20260505234016 | 17 | 292 | 3.2 | 6.4 | 0.00 | 0.00 | 0.00 | 70 | 1008.8 |
| 20260505233036 | 17 | 317 | 1.6 | 6.4 | 0.00 | 0.00 | 0.00 | 69 | 1008.6 |
| 20260505232017 | 17 | 242 | 3.2 | 8.0 | 0.00 | 0.00 | 0.00 | 68 | 1008.3 |
| 20260505231036 | 17 | 220 | 3.2 | 9.7 | 0.00 | 0.00 | 0.00 | 67 | 1008.3 |
| 20260505230017 | 18 | 181 | 3.2 | 8.0 | 0.00 | 0.00 | 0.00 | 67 | 1008.1 |
| 20260505225017 | 18 | 227 | 3.2 | 8.0 | 0.00 | 0.00 | 0.00 | 66 | 1008.0 |
| 20260505224017 | 18 | 170 | 3.2 | 11.3 | 0.00 | 0.00 | 0.00 | 66 | 1008.2 |
| 20260505223018 | 19 | 252 | 3.2 | 9.7 | 0.00 | 0.00 | 0.00 | 65 | 1008.3 |
| 20260505222018 | 20 | 241 | 3.2 | 9.7 | 0.00 | 0.00 | 0.00 | 65 | 1008.2 |
| 20260505221018 | 20 | 234 | 3.2 | 11.3 | 0.00 | 0.00 | 0.00 | 64 | 1008.2 |
| 20260505220018 | 20 | 135 | 3.2 | 9.7 | 0.00 | 0.00 | 0.00 | 64 | 1008.2 |
| 20260505215018 | 20 | 268 | 4.8 | 9.7 | 0.00 | 0.00 | 0.00 | 64 | 1008.2 |
| 20260505214018 | 20 | 250 | 3.2 | 8.0 | 0.00 | 0.00 | 0.00 | 63 | 1008.2 |
| 20260505213015 | 20 | 260 | 4.8 | 11.3 | 0.00 | 0.00 | 0.00 | 64 | 1008.2 |
| 20260505212016 | 21 | 216 | 3.2 | 8.0 | 0.00 | 0.00 | 0.00 | 63 | 1008.1 |
| 20260505211016 | 20 | 191 | 4.8 | 11.3 | 0.00 | 0.00 | 0.00 | 63 | 1008.2 |
| 20260505210016 | 20 | 186 | 3.2 | 8.0 | 0.00 | 0.00 | 0.00 | 64 | 1008.3 |
| 20260505205016 | 20 | 201 | 4.8 | 14.5 | 0.00 | 0.00 | 0.00 | 64 | 1008.1 |
| 20260505204016 | 20 | 213 | 3.2 | 8.0 | 0.00 | 0.00 | 0.00 | 64 | 1008.1 |
| 20260505203017 | 20 | 184 | 3.2 | 8.0 | 0.00 | 0.00 | 0.00 | 64 | 1008.2 |
| 20260505202017 | 20 | 181 | 4.8 | 9.7 | 0.00 | 0.00 | 0.00 | 64 | 1008.2 |
| 20260505201017 | 20 | 203 | 4.8 | 9.7 | 0.00 | 0.00 | 0.00 | 64 | 1008.3 |
| 20260505200017 | 20 | 158 | 4.8 | 16.1 | 0.00 | 0.00 | 0.00 | 65 | 1008.3 |
| 20260505195017 | 19 | 172 | 6.4 | 16.1 | 0.00 | 0.00 | 0.00 | 66 | 1008.4 |
| 20260505194017 | 19 | 177 | 6.4 | 14.5 | 0.00 | 0.00 | 0.00 | 68 | 1008.5 |
| 20260505193038 | 20 | 168 | 6.4 | 11.3 | 0.00 | 0.00 | 0.00 | 67 | 1008.6 |
| 20260505192018 | 20 | 160 | 6.4 | 14.5 | 0.00 | 0.00 | 0.00 | 65 | 1008.8 |
| 20260505191019 | 20 | 163 | 8.0 | 12.9 | 0.00 | 0.00 | 0.00 | 65 | 1009.0 |
| 20260505190018 | 20 | 179 | 4.8 | 11.3 | 0.00 | 0.00 | 0.00 | 66 | 1009.2 |
| 20260505185038 | 19 | 159 | 8.0 | 14.5 | 0.00 | 0.00 | 0.00 | 67 | 1009.2 |
| 20260505184018 | 19 | 165 | 6.4 | 17.7 | 0.00 | 0.00 | 0.00 | 69 | 1009.3 |
| 20260505183015 | 18 | 180 | 4.8 | 11.3 | 0.00 | 0.00 | 0.00 | 71 | 1009.2 |
| 20260505182016 | 18 | 166 | 8.0 | 16.1 | 0.00 | 0.00 | 0.00 | 71 | 1009.3 |
| 20260505181036 | 19 | 161 | 9.7 | 19.3 | 0.00 | 0.00 | 0.00 | 70 | 1009.3 |
| 20260505180017 | 20 | 181 | 6.4 | 12.9 | 0.00 | 0.00 | 0.00 | 68 | 1009.4 |
| 20260505175017 | 20 | 174 | 6.4 | 12.9 | 0.00 | 0.00 | 0.00 | 68 | 1009.4 |
| 20260505174016 | 20 | 182 | 4.8 | 12.9 | 0.00 | 0.00 | 0.00 | 68 | 1009.4 |
| 20260505173017 | 20 | 178 | 6.4 | 12.9 | 0.00 | 0.00 | 0.00 | 67 | 1009.5 |
| 20260505172017 | 21 | 175 | 6.4 | 12.9 | 0.00 | 0.00 | 0.00 | 64 | 1009.5 |
| 20260505171017 | 22 | 161 | 6.4 | 11.3 | 0.00 | 0.00 | 0.00 | 62 | 1009.6 |
| 20260505170017 | 22 | 174 | 3.2 | 9.7 | 0.00 | 0.00 | 0.00 | 60 | 1009.6 |
| 20260505165017 | 21 | 146 | 6.4 | 11.3 | 0.00 | 0.00 | 0.00 | 63 | 1009.7 |
| 20260505164017 | 21 | 145 | 6.4 | 11.3 | 0.00 | 0.00 | 0.00 | 64 | 1009.7 |
| 20260505163036 | 20 | 157 | 6.4 | 11.3 | 0.00 | 0.00 | 0.00 | 65 | 1009.8 |
| 20260505162017 | 20 | 150 | 4.8 | 11.3 | 0.00 | 0.00 | 0.00 | 67 | 1010.1 |
| 20260505161016 | 19 | 154 | 6.4 | 9.7 | 0.00 | 0.00 | 0.00 | 67 | 1010.2 |
| 20260505153035 | 22 | 163 | 3.2 | 9.7 | 0.00 | 0.00 | 0.00 | 61 | 1010.5 |
| 20260505152016 | 21 | 207 | 3.2 | 6.4 | 0.00 | 0.00 | 0.00 | 62 | 1010.7 |